• In Deutschland
  • Länderverzeichnis
  • Für 7 Tage
  • Wassertemperatur
  • Satellitenkarten
  • Wetterkarte
  • Widgets
  • user-avatar
    Anmelden

    Stündliche Wetter Ibigs

    Heute, 12 Dezember, Dienstag

    Zeit Temperatur Niederschläge Wind Luftdruck Luftfeuchtigkeit
    00:00 +19°C° 0,7 mm 1 m/S 649 mmHg 83%
    01:00 +17°C° 0,7 mm 0 m/S 649 mmHg 83%
    02:00 +17°C° 1,1 mm 0 m/S 649 mmHg 84%
    03:00 +17°C° 1,1 mm 0 m/S 649 mmHg 86%
    04:00 +17°C° 1,1 mm 0 m/S 649 mmHg 87%
    05:00 +17°C° 1 mm 0 m/S 649 mmHg 87%
    06:00 +17°C° 1 mm 0 m/S 649 mmHg 88%
    07:00 +17°C° 1 mm 0 m/S 650 mmHg 89%
    08:00 +17°C° 0,9 mm 0 m/S 650 mmHg 87%
    09:00 +20°C° 0,9 mm 1 m/S 650 mmHg 86%
    10:00 +20°C° 0,9 mm 1 m/S 651 mmHg 84%
    11:00 +21°C° 0,6 mm 1 m/S 650 mmHg 82%
    12:00 +21°C° 0,6 mm 1 m/S 650 mmHg 79%
    13:00 +22°C° 0,6 mm 1 m/S 650 mmHg 76%
    14:00 +22°C° 0,4 mm 1 m/S 649 mmHg 75%
    15:00 +22°C° 0,4 mm 1 m/S 649 mmHg 74%
    16:00 +22°C° 0,4 mm 1 m/S 648 mmHg 73%
    17:00 +21°C° 0,1 mm 1 m/S 648 mmHg 77%
    18:00 +20°C° 0,1 mm 1 m/S 648 mmHg 80%
    19:00 +19°C° 0,1 mm 1 m/S 648 mmHg 83%
    20:00 +19°C° 0 mm 1 m/S 649 mmHg 82%
    21:00 +19°C° 0 mm 1 m/S 649 mmHg 81%
    22:00 +18°C° 0 mm 1 m/S 649 mmHg 80%
    23:00 +18°C° 0 mm 1 m/S 649 mmHg 81%

    Morgen, 13 Dezember, Mittwoch

    Zeit Temperatur Niederschläge Wind Luftdruck Luftfeuchtigkeit
    00:00 +18°C° 0 mm 1 m/S 649 mmHg 81%
    01:00 +16°C° 0 mm 0 m/S 649 mmHg 81%
    02:00 +16°C° 0 mm 0 m/S 649 mmHg 82%
    03:00 +16°C° 0 mm 0 m/S 649 mmHg 83%
    04:00 +15°C° 0 mm 0 m/S 649 mmHg 84%
    05:00 +16°C° 0 mm 0 m/S 649 mmHg 83%
    06:00 +18°C° 0 mm 1 m/S 650 mmHg 82%
    07:00 +19°C° 0 mm 1 m/S 650 mmHg 81%
    08:00 +20°C° 0 mm 1 m/S 651 mmHg 74%
    09:00 +22°C° 0 mm 1 m/S 651 mmHg 68%
    10:00 +24°C° 0 mm 2 m/S 652 mmHg 61%
    11:00 +25°C° 0 mm 2 m/S 651 mmHg 59%
    12:00 +25°C° 0 mm 2 m/S 651 mmHg 57%
    13:00 +26°C° 0 mm 2 m/S 650 mmHg 55%
    14:00 +26°C° 0 mm 2 m/S 650 mmHg 56%
    15:00 +26°C° 0 mm 2 m/S 649 mmHg 56%
    16:00 +26°C° 0 mm 2 m/S 648 mmHg 57%
    17:00 +24°C° 0,1 mm 1 m/S 648 mmHg 64%
    18:00 +22°C° 0,1 mm 1 m/S 648 mmHg 70%
    19:00 +20°C° 0,1 mm 1 m/S 648 mmHg 77%
    20:00 +20°C° 0 mm 1 m/S 649 mmHg 78%
    21:00 +19°C° 0 mm 1 m/S 649 mmHg 80%
    22:00 +19°C° 0 mm 1 m/S 649 mmHg 82%
    23:00 +19°C° 0 mm 1 m/S 649 mmHg 83%

    übermorgen, 14 Dezember, Donnerstag

    Zeit Temperatur Niederschläge Wind Luftdruck Luftfeuchtigkeit
    00:00 +18°C° 0 mm 1 m/S 649 mmHg 84%
    01:00 +18°C° 0 mm 1 m/S 648 mmHg 86%
    02:00 +18°C° 0 mm 1 m/S 648 mmHg 86%
    03:00 +16°C° 0 mm 1 m/S 648 mmHg 87%
    04:00 +16°C° 0 mm 1 m/S 647 mmHg 88%
    05:00 +18°C° 0 mm 1 m/S 648 mmHg 85%
    06:00 +18°C° 0 mm 1 m/S 648 mmHg 82%
    07:00 +19°C° 0 mm 1 m/S 649 mmHg 79%
    08:00 +21°C° 0 mm 1 m/S 650 mmHg 69%
    09:00 +23°C° 0 mm 1 m/S 650 mmHg 58%
    10:00 +26°C° 0 mm 1 m/S 651 mmHg 48%
    11:00 +27°C° 0 mm 2 m/S 651 mmHg 44%
    12:00 +28°C° 0 mm 2 m/S 650 mmHg 41%
    13:00 +29°C° 0 mm 2 m/S 650 mmHg 37%
    14:00 +29°C° 0 mm 2 m/S 649 mmHg 39%
    15:00 +29°C° 0 mm 1 m/S 648 mmHg 40%
    16:00 +28°C° 0 mm 1 m/S 648 mmHg 42%
    17:00 +26°C° 0 mm 1 m/S 648 mmHg 50%
    18:00 +23°C° 0 mm 1 m/S 648 mmHg 59%
    19:00 +21°C° 0 mm 1 m/S 648 mmHg 67%
    20:00 +20°C° 0 mm 1 m/S 648 mmHg 65%
    21:00 +20°C° 0 mm 1 m/S 649 mmHg 64%
    22:00 +19°C° 0 mm 1 m/S 649 mmHg 62%
    23:00 +19°C° 0 mm 1 m/S 649 mmHg 58%

    15 Dezember, Freitag

    Zeit Temperatur Niederschläge Wind Luftdruck Luftfeuchtigkeit
    00:00 +19°C° 0 mm 1 m/S 649 mmHg 54%
    01:00 +18°C° 0 mm 1 m/S 648 mmHg 51%
    02:00 +18°C° 0 mm 1 m/S 648 mmHg 50%
    03:00 +18°C° 0 mm 1 m/S 648 mmHg 49%
    04:00 +16°C° 0 mm 1 m/S 648 mmHg 49%
    05:00 +18°C° 0 mm 1 m/S 648 mmHg 48%
    06:00 +19°C° 0 mm 1 m/S 649 mmHg 48%
    07:00 +19°C° 0 mm 1 m/S 650 mmHg 48%
    08:00 +22°C° 0 mm 1 m/S 650 mmHg 45%
    09:00 +24°C° 0 mm 1 m/S 651 mmHg 42%
    10:00 +27°C° 0 mm 2 m/S 651 mmHg 38%
    11:00 +28°C° 0 mm 2 m/S 651 mmHg 37%
    12:00 +29°C° 0 mm 2 m/S 650 mmHg 35%
    13:00 +30°C° 0 mm 2 m/S 650 mmHg 33%
    14:00 +29°C° 0 mm 2 m/S 649 mmHg 35%
    15:00 +29°C° 0 mm 1 m/S 649 mmHg 36%
    16:00 +29°C° 0 mm 1 m/S 648 mmHg 38%
    17:00 +26°C° 0 mm 1 m/S 648 mmHg 45%
    18:00 +24°C° 0 mm 1 m/S 648 mmHg 52%
    19:00 +21°C° 0 mm 1 m/S 648 mmHg 59%
    20:00 +21°C° 0 mm 1 m/S 649 mmHg 58%
    21:00 +21°C° 0 mm 1 m/S 649 mmHg 57%
    22:00 +21°C° 0 mm 1 m/S 650 mmHg 56%
    23:00 +21°C° 0 mm 1 m/S 649 mmHg 55%

    16 Dezember, Samstag

    Zeit Temperatur Niederschläge Wind Luftdruck Luftfeuchtigkeit
    00:00 +20°C° 0 mm 1 m/S 649 mmHg 54%
    01:00 +20°C° 0 mm 1 m/S 649 mmHg 54%
    02:00 +20°C° 0 mm 1 m/S 649 mmHg 55%
    03:00 +19°C° 0 mm 1 m/S 648 mmHg 56%
    04:00 +19°C° 0 mm 1 m/S 648 mmHg 57%
    05:00 +19°C° 0 mm 1 m/S 649 mmHg 58%
    06:00 +20°C° 0 mm 1 m/S 649 mmHg 58%
    07:00 +20°C° 0 mm 1 m/S 650 mmHg 58%
    08:00 +22°C° 0 mm 1 m/S 650 mmHg 53%
    09:00 +24°C° 0 mm 1 m/S 651 mmHg 48%
    10:00 +26°C° 0 mm 1 m/S 652 mmHg 43%
    11:00 +27°C° 0 mm 1 m/S 651 mmHg 42%
    12:00 +28°C° 0 mm 1 m/S 650 mmHg 41%
    13:00 +29°C° 0 mm 2 m/S 650 mmHg 39%
    14:00 +29°C° 0 mm 1 m/S 649 mmHg 40%
    15:00 +28°C° 0 mm 1 m/S 649 mmHg 41%
    16:00 +28°C° 0 mm 1 m/S 648 mmHg 42%
    17:00 +26°C° 0 mm 1 m/S 648 mmHg 50%
    18:00 +23°C° 0 mm 1 m/S 648 mmHg 57%
    19:00 +21°C° 0 mm 1 m/S 648 mmHg 64%
    20:00 +21°C° 0 mm 1 m/S 648 mmHg 64%
    21:00 +20°C° 0 mm 1 m/S 648 mmHg 64%
    22:00 +20°C° 0 mm 1 m/S 648 mmHg 64%
    23:00 +19°C° 0 mm 1 m/S 648 mmHg 63%

    17 Dezember, Sonntag

    Zeit Temperatur Niederschläge Wind Luftdruck Luftfeuchtigkeit
    00:00 +19°C° 0 mm 1 m/S 648 mmHg 62%
    01:00 +19°C° 0 mm 1 m/S 647 mmHg 62%
    02:00 +19°C° 0 mm 1 m/S 647 mmHg 61%
    03:00 +18°C° 0 mm 1 m/S 647 mmHg 60%
    04:00 +18°C° 0 mm 1 m/S 647 mmHg 59%
    05:00 +19°C° 0 mm 1 m/S 648 mmHg 58%
    06:00 +19°C° 0 mm 1 m/S 648 mmHg 57%
    07:00 +20°C° 0 mm 1 m/S 649 mmHg 56%
    08:00 +22°C° 0 mm 1 m/S 649 mmHg 50%
    09:00 +24°C° 0 mm 1 m/S 650 mmHg 44%
    10:00 +27°C° 0 mm 2 m/S 650 mmHg 38%
    11:00 +28°C° 0 mm 2 m/S 650 mmHg 36%
    12:00 +29°C° 0 mm 2 m/S 649 mmHg 33%
    13:00 +30°C° 0 mm 2 m/S 649 mmHg 31%
    14:00 +30°C° 0 mm 2 m/S 648 mmHg 31%
    15:00 +30°C° 0 mm 1 m/S 648 mmHg 32%
    16:00 +29°C° 0 mm 1 m/S 647 mmHg 32%
    17:00 +26°C° 0 mm 1 m/S 647 mmHg 38%
    18:00 +24°C° 0 mm 2 m/S 647 mmHg 44%
    19:00 +20°C° 0 mm 2 m/S 647 mmHg 51%
    20:00 +20°C° 0 mm 2 m/S 647 mmHg 47%
    21:00 +19°C° 0 mm 2 m/S 648 mmHg 44%
    22:00 +19°C° 0 mm 2 m/S 648 mmHg 40%
    23:00 +18°C° 0 mm 2 m/S 648 mmHg 39%
    Mehr zeigen